Flag for Eritrea Weather past 2 weeks in Keren, Eritrea

Now
90 °F

Passing clouds.


Feels Like: 96 °F
Forecast: 66 / 84 °F
Wind: 5 mph from Southeast

Location: Gizan

Current Time: Aug 4, 2015 at 4:56:40 AM

Latest Report: Aug 4, 2015 at 4:00 AM


Visibility: N/A

Pressure: 29.65 "Hg (25.37 "Hg at 1393m altitude)

Humidity: 55%

Dew point: 72 °F

Historic Weather in Keren — Graph

°F

Keren temperature yesterday

Maximum temperature yesterday: 100 °F (at 3:00 PM)
Minimum temperature yesterday: 86 °F (at 3:00 AM)
Average temperature yesterday: 94 °F

Past Weeks' High & Low Weather Summary

 TemperatureHumidityPressure
High104 °F (Jul 28, 2:00 PM)75% (Jul 20, 4:00 AM)29.77 "Hg (Jul 20, 4:00 AM)
Low86 °F (Aug 2, 5:00 PM)30% (Aug 2, 3:00 PM)29.50 "Hg (Jul 27, 2:00 AM)
Average95 °F54%29.62 "Hg
* Reported Jul 20 4:00 AM — Aug 4 4:00 AM, Keren, Weather by CustomWeather, © 2015

Note: Actual official high and low records may vary slightly from our data, if they occured in-between our weather recording intervals... More about our weather records

Advertising

Keren weather history for previous 24 hours

 ConditionsComfort  
Time TempWeatherWind HumidityBarometerVisibility
4:00 AM
Tue, Aug 4
90 °FPassing clouds.5 mph55%29.65 "HgN/A
3:00 AM91 °FPassing clouds.5 mph52%29.62 "HgN/A
2:00 AM93 °FPassing clouds.No wind49%29.65 "HgN/A
1:00 AM91 °FPassing clouds.No wind52%29.68 "HgN/A
12:00 AM93 °FPassing clouds.7 mph53%29.68 "HgN/A
11:00 PM
Mon, Aug 3
93 °FPassing clouds.7 mph59%29.71 "Hg6 mi
10:00 PM95 °FPassing clouds.No wind56%29.71 "Hg5 mi
9:00 PM95 °FPassing clouds.No wind53%29.71 "Hg5 mi
8:00 PM95 °FPassing clouds.7 mph56%29.71 "Hg5 mi
7:00 PM97 °FPassing clouds.9 mph50%29.71 "Hg2 mi
6:00 PM97 °FPassing clouds.9 mph53%29.68 "Hg2 mi
5:00 PM100 °FPassing clouds.8 mph45%29.65 "Hg2 mi
4:00 PM100 °FSunny.10 mph42%29.62 "Hg2 mi
3:00 PM100 °FSunny.10 mph47%29.65 "Hg3 mi
2:00 PM99 °FDuststorm.7 mph47%29.68 "Hg3 mi
1:00 PM97 °FClear.13 mph53%29.71 "Hg4 mi
12:00 PM97 °FPartly sunny.12 mph50%29.71 "Hg5 mi
11:00 AM95 °FPartly sunny.7 mph56%29.71 "Hg5 mi
10:00 AM99 °FClear.9 mph47%29.74 "Hg4 mi
9:00 AM95 °FPartly sunny.3 mph53%29.74 "HgN/A
8:00 AM91 °FPartly sunny.5 mph56%29.74 "HgN/A
7:00 AM90 °FScattered clouds.3 mph55%29.71 "HgN/A
6:00 AM86 °FSunny.No wind62%29.71 "Hg10 mi
5:00 AM86 °FClear.3 mph62%29.71 "Hg10 mi
4:00 AM86 °FClear.6 mph62%29.68 "Hg10 mi
Weather by CustomWeather, © 2015

See weather overviewHow to use our weather pages